Regional Weather Roundup
Issued by NWS Jackson, KY

Home | Current Version | Previous Version | Graphics & Text | Print | Product List | Glossary On
Versions: 1 2 3 4 5 6 7 8 9 10 11 12 13 14 15 16 17 18 19 20 21 22 23 24 25 26 27 28 29 30 31 32 33 34 35 36 37 38 39 40 41 42 43 44 45 46 47 48 49 50
401
ASUS43 KJKL 221310
RWRJKL

EAST KENTUCKY HOURLY WEATHER ROUNDUP
NATIONAL WEATHER SERVICE JACKSON KY
900 AM EDT TUE AUG 22 2017

NOTE: "FAIR" INDICATES FEW OR NO CLOUDS BELOW 12,000 FEET WITH
NO SIGNIFICANT WEATHER AND/OR OBSTRUCTIONS TO VISIBILITY.

* THESE REPORTS ARE NOT UNDER NWS QUALITY CONTROL AND MAY NOT
  REPORT WEATHER SUCH AS PRECIPITATION AND FOG.

KYZ079-080-083-085-087-088-110-112-115-119-120-221400
...EASTERN KENTUCKY...

CITY           SKY/WX    TMP DP  RH WIND       PRES   REMARKS
JACKSON        SUNNY     74  68  81 CALM      30.10S
LONDON         SUNNY     74  68  81 S3        30.11S
SOMERSET*      SUNNY     73  68  83 S3        30.10S
MONTICELLO*    SUNNY     78  71  79 VRB7      30.11S
WILLIAMSBURG*  SUNNY     73  72  94 CALM      30.12S
MIDDLESBORO*   CLOUDY    67  67 100 CALM      30.14S FOG
HARLAN APT*    CLOUDY    68  64  88 CALM      30.16R VSB 1/2
PIKE CO APT*     N/A     73  72  95 SE5       30.11S
BIG SANDY APT* SUNNY     76  70  84 SW3       30.10S
MOREHEAD APT*  MOSUNNY   77  68  73 S8        30.07S
$$

KYZ035-036-041-042-044-050-067-078-099-221400
...CENTRAL KENTUCKY...

CITY           SKY/WX    TMP DP  RH WIND       PRES   REMARKS
MT STERLING*   SUNNY     75  70  83 SW8       30.07S
FLEMING/MASON* MOSUNNY   75  69  81 SW10      30.04F
DANVILLE*      MOSUNNY   75  70  83 S8        30.07F
LEXINGTON      MOSUNNY   77  68  73 SW13      30.05S
FRANKFORT      MOSUNNY   78  67  68 SW12      30.02S
LOUISVILLE     PTSUNNY   81  71  71 SW9       29.99F
LEBANON*         N/A     77  68  73 S9        30.05S
GLASGOW*       SUNNY     76  69  78 S6        30.06S
BOWLING GREEN  SUNNY     80  73  79 SW7       30.05S
$$

KYZ091>093-OHZ055-061-077-WVZ005-015-034-035-042-221400
...SOUTHERN OHIO/WEST VIRGINIA...

CITY           SKY/WX    TMP DP  RH WIND       PRES   REMARKS
COVINGTON      MOSUNNY   78  71  79 SW12G18   29.98F
COLUMBUS       PTSUNNY   77  69  76 SW13      29.96F
DAYTON         PTSUNNY   78  69  73 SW15G22   29.95F
WILMINGTON     SUNNY     77  71  82 SW15      29.98S
HUNTINGTON     SUNNY     76  69  79 SW8       30.04F
CHARLESTON     MOSUNNY   75  69  81 CALM      30.07R
PINEVILLE*     SUNNY     69  68  97 MISG      30.20S
BECKLEY        SUNNY     74  65  73 W5        30.18S
BLUEFIELD      SUNNY     71  64  78 W8        30.21F
LOGAN CO APT*    N/A     75  68  78 CALM      30.12S
$$

VAZ002-007-008-TNZ017-027-036-066-071-221400
...SOUTHWEST VIRGINIA/EAST TENNESSEE...

CITY           SKY/WX    TMP DP  RH WIND       PRES   REMARKS
WISE*          SUNNY     73  70  88 SW7       30.22R
JONESVILLE*      N/A     72  68  88 CALM      30.18R
ABINGDON*      MOSUNNY   75  70  86 CALM      30.19S
BRISTOL        MOSUNNY   72  69  90 CALM      30.16S
MORRISTOWN*    SUNNY     77  72  83 CALM      30.14R
SEVIERVILLE*   MOSUNNY   73  66  78 CALM      30.13S
KNOXVILLE      MOSUNNY   75  70  84 SE3       30.13R
LAFOLLETTE*    SUNNY     72  70  94 CALM      30.17S
OAK RIDGE      SUNNY     78  70  76 CALM      30.14R
CROSSVILLE     SUNNY     73  68  84 VRB5      30.17R
NASHVILLE      MOSUNNY   80  72  76 SW5       30.08R
$$

...KEY TO REMARKS...
VSB - VISIBILITY IN MILES
WCI - WIND CHILL INDEX
HX  - HEAT INDEX

$$




USA.gov is the U.S. government's official web portal to all federal, state and local government web resources and services.